METAR LSZS 250350Z AUTO VRB01KT CAVOK M05/M06 Q1032=
Diese Daten sind ohne Gewähr und dürfen nicht für die Flugvorbereitung verwendet werden.
Information contained in this website shall not be used for flight operation purposes.